Location: Four Corners
(38.2757°N, 122.4608°W)
Time: 06:07:22
(UTC+00:00)

IRS-1C Rocket - Pass Details

Date: 08 December 2019
Orbit: 800 x 806 km, 99.0° (Epoch: 22 January)

Event Time Altitude Azimuth Distance (km) Brightness Sun altitude
Rises 01:44:11 0° 171° (S) 3,305 7.4 -10.6°
Reaches altitude 10° 01:46:31 10° 173° (S) 2,377 6.7 -11.0°
Maximum altitude 01:51:45 70° 257° (WSW) 855 4.5 -12.0°
Drops below altitude 10° 01:57:01 10° 342° (NNW) 2,390 6.6 -13.0°
Sets 01:59:23 0° 344° (NNW) 3,324 7.3 -13.4°
